STARLINK-6359, 57346

Orbit data source: Space-Track

STARLINK-6359, 57346 is a payload satellite owned by SpaceX/Seattle (US) in LEO that was launched on Sun, 16 Jul 2023 UTC via an FALCON 9 launch vehicle from the Air Force Eastern Test Range (AFETR). Payload-class satellites include a variety of spacecraft equipped with specific instruments for various scientific and technological missions. These include communications satellites like Starlink; space stations such as the ISS; scientific satellites like the Hubble; Earth observation satellites from companies like Planet Labs, Umbra, and HawkEye 360; GPS; miniature CubeSats for education and research; and military/defense satellites.

Loading next visibility...
Identifier
57346, 2023-099U
Orbit
LEO
Country
Flag of USUS
Related business
Manufacturer
SpaceX/Seattle
Mission
Operational Commercial Communications
Bus & Motor
STARLINK, Unknown motor
Mass
305 kg wet, ~290 kg dry
Launch date (UTC)
2023-07-16 (3 years ago)
Launch vehicle
FALCON 9
Launch site
Air Force Eastern Test Range (AFETR)
Object type
Payload
Rocket body
Debris
Shape & HBR
Box + 1 Pan, 10.1 m
Radar Cross Section
11.087 m², Large (>1 m²)

Expand to show TLE details & history
Last TLE update: 2 days ago

TLE from 2 days ago
0 STARLINK-6359
1 57346U 23099U   26170.96098641  .00000122  00000-0  13957-4 0  9991
2 57346  43.0026  31.7449 0001273 265.1656  94.9050 15.27577423161754
Epoch: 2026-06-19T23:03Z
TLE epoch observation values (Epoch: 2026-06-19T23:03:49.225Z)
Latitude
-0.00006°
Longitude
137.60728°
Altitude
482.907 km
Speed
7.626 km/s
True Right ascension
02h 06m 58s
True Declination
0° 00' 00"
Sunlit
Object was in daylight at epoch
Visualization orbit readout
Latitude
Unknown
Longitude
Unknown
Altitude
Unknown
Speed
Unknown
Apparent Right ascension
Unknown
Apparent Declination
Unknown
Sunlit
N/A
Visualization observer readout
Local Sidereal Time
21:28:58
Azimuth
Unknown
Elevation
Unknown
Doppler factor
Unknown
Orbital elements
Apogee altitude
485.875 km
Perigee altitude
484.128 km
Semi-major axis
6,863.139 km
Eccentricity
0.00013
Inclination
43.0026°
RAAN
31.7449°
Arg. of periapsis
265.1656°
True anomaly
94.91953°
Mean anomaly
94.905°
Eccentric anomaly
94.91227°
Mean motion
3.81732 °/min
Orbital period
94.31 mins
BSTAR
0.000013957
Loading maneuver chart data...
Computing Atmospheric mass density...
Loading historical data...
Loading historical data...
Loading historical data...
Loading historical data...
Loading historical data...
Loading historical data...
Loading historical data...

Documentation

Showing up to 5 results
|